| time (UTC) | temp F | wind direction | speed knots | gust knots | rain 1hr in | rain 24hr in | rain mn in | humidity % | barometer mb |
| 20260506194600 | 57 | 5 | 0.0 | 1.7 | 0.00 | 0.54 | 0.50 | 78 | 1011.9 |
| 20260506193059 | 58 | 5 | 0.0 | 1.7 | 0.00 | 0.54 | 0.50 | 75 | 1011.7 |
| 20260506191553 | 59 | 5 | 0.0 | 2.6 | 0.00 | 0.54 | 0.50 | 73 | 1011.4 |
| 20260506190051 | 60 | 205 | 0.0 | 1.7 | 0.00 | 0.54 | 0.50 | 70 | 1011.1 |
| 20260506184548 | 61 | 213 | 0.0 | 2.6 | 0.00 | 0.54 | 0.50 | 69 | 1010.8 |
| 20260506183056 | 61 | 22 | 0.0 | 5.2 | 0.00 | 0.54 | 0.50 | 68 | 1010.6 |
| 20260506181559 | 62 | 293 | 0.0 | 4.3 | 0.00 | 0.54 | 0.50 | 66 | 1010.5 |
| 20260506180048 | 63 | 107 | 0.9 | 2.6 | 0.00 | 0.54 | 0.50 | 65 | 1010.2 |
| 20260506174546 | 63 | 102 | 0.9 | 5.2 | 0.00 | 0.54 | 0.50 | 63 | 1009.9 |
| 20260506173116 | 64 | 78 | 0.9 | 4.3 | 0.00 | 0.54 | 0.50 | 61 | 1009.7 |
| 20260506171551 | 65 | 38 | 0.9 | 5.2 | 0.00 | 0.54 | 0.50 | 59 | 1009.6 |
| 20260506170041 | 66 | 153 | 0.0 | 4.3 | 0.00 | 0.54 | 0.50 | 56 | 1009.4 |
| 20260506164538 | 67 | 118 | 0.9 | 5.2 | 0.00 | 0.54 | 0.50 | 53 | 1009.3 |
| 20260506163036 | 68 | 120 | 0.9 | 7.8 | 0.00 | 0.54 | 0.50 | 51 | 1009.4 |
| 20260506161533 | 68 | 101 | 3.5 | 7.0 | 0.00 | 0.54 | 0.50 | 52 | 1009.3 |
| 20260506160039 | 69 | 137 | 1.7 | 5.2 | 0.00 | 0.54 | 0.50 | 48 | 1009.4 |
| 20260506154534 | 69 | 66 | 1.7 | 7.8 | 0.00 | 0.54 | 0.50 | 48 | 1009.1 |
| 20260506153032 | 70 | 88 | 1.7 | 4.3 | 0.00 | 0.54 | 0.50 | 48 | 1009.2 |
| 20260506151532 | 70 | 130 | 1.7 | 7.0 | 0.00 | 0.54 | 0.50 | 49 | 1009.1 |
| 20260506150031 | 70 | 80 | 1.7 | 8.7 | 0.00 | 0.54 | 0.50 | 46 | 1009.2 |
| 20260506144530 | 71 | 94 | 1.7 | 6.1 | 0.00 | 0.54 | 0.50 | 46 | 1009.2 |
| 20260506143034 | 70 | 117 | 1.7 | 6.1 | 0.00 | 0.54 | 0.50 | 46 | 1009.2 |
| 20260506141529 | 71 | 355 | 1.7 | 8.7 | 0.00 | 0.54 | 0.50 | 45 | 1009.3 |
| 20260506140130 | 71 | 120 | 0.9 | 9.6 | 0.00 | 0.54 | 0.50 | 45 | 1009.4 |
| 20260506134527 | 71 | 102 | 3.5 | 12.2 | 0.00 | 0.54 | 0.50 | 45 | 1009.5 |
| 20260506133027 | 71 | 92 | 0.9 | 7.0 | 0.00 | 0.54 | 0.50 | 49 | 1009.7 |
| 20260506131540 | 70 | 36 | 2.6 | 12.2 | 0.00 | 0.54 | 0.50 | 50 | 1009.7 |
| 20260506130034 | 70 | 58 | 1.7 | 6.1 | 0.00 | 0.54 | 0.50 | 49 | 1009.8 |
| 20260506124520 | 70 | 325 | 1.7 | 11.3 | 0.00 | 0.54 | 0.50 | 49 | 1009.9 |
| 20260506123019 | 70 | 105 | 1.7 | 8.7 | 0.00 | 0.54 | 0.50 | 52 | 1009.9 |
| 20260506121516 | 69 | 155 | 1.7 | 7.0 | 0.00 | 0.54 | 0.50 | 52 | 1010.0 |
| 20260506120018 | 67 | 169 | 1.7 | 6.1 | 0.00 | 0.54 | 0.50 | 56 | 1010.1 |
| 20260506114511 | 66 | 347 | 0.9 | 4.3 | 0.00 | 0.54 | 0.50 | 59 | 1010.2 |
| 20260506113009 | 67 | 345 | 1.7 | 9.6 | 0.00 | 0.54 | 0.50 | 56 | 1010.3 |
| 20260506111508 | 67 | 87 | 1.7 | 8.7 | 0.00 | 0.54 | 0.50 | 55 | 1010.3 |
| 20260506110006 | 67 | 351 | 1.7 | 5.2 | 0.00 | 0.65 | 0.50 | 59 | 1010.3 |
| 20260506104505 | 67 | 88 | 2.6 | 5.2 | 0.00 | 0.65 | 0.50 | 60 | 1010.4 |
| 20260506103003 | 66 | 296 | 2.6 | 11.3 | 0.00 | 0.65 | 0.50 | 60 | 1010.5 |
| 20260506101503 | 65 | 276 | 1.7 | 8.7 | 0.00 | 0.65 | 0.50 | 65 | 1010.5 |
| 20260506100100 | 64 | 234 | 1.7 | 7.0 | 0.00 | 0.65 | 0.50 | 65 | 1010.5 |
| 20260506094501 | 64 | 94 | 2.6 | 7.8 | 0.00 | 0.67 | 0.50 | 65 | 1010.6 |
| 20260506093059 | 65 | 67 | 1.7 | 6.1 | 0.00 | 0.67 | 0.50 | 70 | 1010.5 |
| 20260506091556 | 64 | 30 | 1.7 | 5.2 | 0.00 | 0.67 | 0.50 | 72 | 1010.3 |
| 20260506090053 | 63 | 94 | 0.9 | 4.3 | 0.00 | 0.67 | 0.50 | 76 | 1010.4 |
| 20260506084551 | 63 | 71 | 0.0 | 4.3 | 0.00 | 0.67 | 0.50 | 80 | 1010.2 |
| 20260506083047 | 61 | 99 | 0.9 | 3.5 | 0.00 | 0.67 | 0.50 | 84 | 1010.3 |
| 20260506081544 | 60 | 114 | 0.0 | 2.6 | 0.00 | 0.67 | 0.50 | 88 | 1010.4 |
| 20260506073036 | 56 | 121 | 0.0 | 2.6 | 0.00 | 0.67 | 0.50 | 94 | 1010.1 |
| 20260506071536 | 56 | 163 | 0.0 | 1.7 | 0.00 | 0.67 | 0.50 | 94 | 1010.1 |
| 20260506061533 | 55 | 300 | 0.0 | 0.0 | 0.00 | 0.67 | 0.50 | 97 | 1009.8 |
| 20260506044527 | 51 | 292 | 0.0 | 0.0 | 0.00 | 0.67 | 0.50 | 96 | 1009.1 |
| 20260506043027 | 51 | 292 | 0.0 | 0.0 | 0.00 | 0.67 | 0.50 | 96 | 1009.0 |
| 20260506041526 | 51 | 292 | 0.0 | 1.7 | 0.01 | 0.67 | 0.50 | 95 | 1008.9 |
| 20260506040025 | 50 | 280 | 0.0 | 0.9 | 0.01 | 0.78 | 0.50 | 95 | 1009.0 |
| 20260506034524 | 50 | 225 | 0.0 | 0.9 | 0.01 | 0.78 | 0.50 | 94 | 1008.8 |
| 20260506033022 | 51 | 225 | 0.0 | 1.7 | 0.01 | 0.78 | 0.50 | 94 | 1008.7 |
| 20260506031519 | 51 | 225 | 0.0 | 0.9 | 0.00 | 0.77 | 0.50 | 93 | 1008.6 |
| 20260506030027 | 52 | 225 | 0.0 | 0.0 | 0.00 | 0.87 | 0.50 | 93 | 1008.7 |
| 20260506024533 | 52 | 225 | 0.0 | 0.0 | 0.02 | 0.87 | 0.50 | 93 | 1008.5 |
| 20260506023015 | 53 | 225 | 0.0 | 0.0 | 0.11 | 0.87 | 0.50 | 93 | 1008.5 |
| 20260506021514 | 53 | 228 | 0.0 | 0.0 | 0.24 | 0.87 | 0.50 | 93 | 1008.4 |
| 20260506020011 | 53 | 234 | 0.0 | 5.2 | 0.35 | 0.88 | 0.50 | 93 | 1008.6 |
| 20260506014516 | 54 | 5 | 2.6 | 5.2 | 0.41 | 0.86 | 0.47 | 93 | 1008.5 |
| 20260506013008 | 55 | 311 | 0.9 | 2.6 | 0.37 | 0.76 | 0.38 | 93 | 1009.6 |
| 20260506011504 | 55 | 342 | 0.9 | 3.5 | 0.25 | 0.64 | 0.25 | 93 | 1009.4 |
| 20260506010104 | 55 | 315 | 0.0 | 2.6 | 0.15 | 0.54 | 0.15 | 93 | 1009.2 |
| 20260506004600 | 56 | 316 | 0.0 | 2.6 | 0.07 | 0.50 | 0.07 | 93 | 1009.0 |
| 20260506003059 | 56 | 188 | 0.0 | 0.9 | 0.01 | 0.43 | 0.01 | 93 | 1009.0 |
| 20260506003003 | 56 | 188 | 0.0 | 0.9 | 0.00 | 0.43 | 0.00 | 93 | 1009.0 |
| 20260506001609 | 56 | 188 | 0.0 | 0.9 | 0.00 | 0.43 | 0.00 | 93 | 1008.9 |
| 20260506000056 | 56 | 188 | 0.0 | 0.9 | 0.00 | 0.43 | 0.00 | 92 | 1009.0 |
| 20260505234556 | 56 | 81 | 0.0 | 2.6 | 0.00 | 0.54 | 0.00 | 92 | 1009.1 |
| 20260505233053 | 57 | 46 | 0.0 | 4.3 | 0.00 | 0.54 | 0.00 | 92 | 1009.5 |
| 20260505231600 | 57 | 333 | 0.9 | 4.3 | 0.00 | 0.54 | 0.00 | 93 | 1009.8 |
| 20260505230056 | 57 | 78 | 0.9 | 5.2 | 0.00 | 0.54 | 0.00 | 92 | 1010.1 |
| 20260505224548 | 57 | 85 | 0.9 | 3.5 | 0.00 | 0.59 | 0.00 | 92 | 1010.2 |
| 20260505223043 | 57 | 62 | 0.0 | 2.6 | 0.00 | 0.59 | 0.00 | 93 | 1010.4 |
| 20260505221544 | 58 | 121 | 0.0 | 2.6 | 0.01 | 0.59 | 0.00 | 92 | 1010.6 |
| 20260505220038 | 58 | 121 | 0.0 | 3.5 | 0.02 | 0.61 | 0.59 | 92 | 1010.9 |
| 20260505214538 | 58 | 171 | 0.0 | 4.3 | 0.04 | 0.61 | 0.59 | 92 | 1011.0 |
| 20260505213048 | 58 | 169 | 0.9 | 4.3 | 0.04 | 0.61 | 0.59 | 92 | 1011.0 |
| 20260505211537 | 58 | 315 | 2.6 | 7.8 | 0.03 | 0.61 | 0.57 | 92 | 1010.5 |
| 20260505210037 | 59 | 30 | 0.0 | 2.6 | 0.02 | 0.60 | 0.56 | 91 | 1011.9 |
| 20260505204536 | 59 | 158 | 0.0 | 2.6 | 0.00 | 0.57 | 0.55 | 90 | 1012.1 |
| 20260505203035 | 59 | 107 | 0.9 | 5.2 | 0.00 | 0.57 | 0.55 | 89 | 1012.0 |
| 20260505201535 | 59 | 47 | 0.0 | 2.6 | 0.00 | 0.57 | 0.55 | 88 | 1011.9 |
| 20260505200035 | 59 | 9 | 0.0 | 2.6 | 0.00 | 0.59 | 0.55 | 85 | 1011.8 |